Weather History for Canadian, TX

Change the Weather History Date:

Tuesday, October 18, 2011

  Actual Average (KPPA) Record (KPPA)
Temperature  
Mean Temperature 52 °F -  
Max Temperature 62 °F 69 °F 93 °F (1991)
Min Temperature 41 °F 42 °F 27 °F (2013)
Degree Days  
Heating Degree Days 14    
Growing Degree Days 2 (Base 50)    
Moisture  
Dew Point 32 °F    
Average Humidity 51    
Maximum Humidity 87    
Minimum Humidity 23    
Precipitation  
Precipitation 0.00 in - - ()
Sea Level Pressure  
Sea Level Pressure 30.19 in    
Wind  
Wind Speed 16 mph (NNW)    
Max Wind Speed 30 mph    
Max Gust Speed 41 mph    
Visibility 10 miles    
Events      
Averages and records for this station are not official NWS values.
T = Trace of Precipitation, MM = Missing Value Source: NWS Daily Summary

Daily Weather History Graph

Daily Weather History Graph

Search for Another Location

Airport:

Trip Planner

Search our weather history database for the weather conditions in past years. The results will help you decide how hot, cold, wet, or windy it might be!

Date:

Astronomy

Oct. 18, 2011 Rise Set
Actual Time 7:50 AM CDT 7:02 PM CDT
Civil Twilight 7:24 AM CDT 7:28 PM CDT
Nautical Twilight 6:55 AM CDT 7:57 PM CDT
Astronomical Twilight 6:25 AM CDT 8:27 PM CDT
Moon 11:51 PM CDT (10/18) 1:36 PM CDT (10/18)
Length of Visible Light 12h 03m
Length of Day
11h 11m
Waning Gibbous, 64% of the Moon is Illuminated
Oct 18
Waning Gibbous
Oct 19
Last Quarter
Oct 26
New
Nov 2
First Quarter
Nov 10
Full

Hourly Weather History & Observations

Time (CDT) Temp. Windchill Dew Point Humidity Pressure Visibility Wind Dir Wind Speed Gust Speed Precip Events Conditions
12:15 AM 51.8 °F - 41.0 °F 67% 30.12 in 10.0 mi North 16.1 mph 21.9 mph N/A   Mostly Cloudy
12:35 AM 51.8 °F - 39.2 °F 62% 30.12 in 10.0 mi North 19.6 mph 25.3 mph N/A   Overcast
12:55 AM 51.8 °F - 39.2 °F 62% 30.12 in 10.0 mi North 20.7 mph 29.9 mph N/A   Overcast
1:15 AM 50.0 °F - 37.4 °F 62% 30.13 in 10.0 mi North 16.1 mph 26.5 mph N/A   Overcast
1:35 AM 50.0 °F - 37.4 °F 62% 30.14 in 10.0 mi NNE 19.6 mph 26.5 mph N/A   Overcast
1:55 AM 50.0 °F - 37.4 °F 62% 30.15 in 10.0 mi North 15.0 mph 27.6 mph N/A   Overcast
2:15 AM 48.2 °F - 37.4 °F 66% 30.16 in 10.0 mi North 11.5 mph 17.3 mph N/A   Overcast
2:35 AM 50.0 °F - 37.4 °F 62% 30.17 in 10.0 mi North 13.8 mph - N/A   Overcast
2:55 AM 48.2 °F - 37.4 °F 66% 30.16 in 10.0 mi North 16.1 mph - N/A   Scattered Clouds
3:15 AM 46.4 °F 39.5 °F 39.2 °F 76% 30.17 in 10.0 mi North 17.3 mph 20.7 mph N/A   Clear
3:35 AM 46.4 °F 40.1 °F 39.2 °F 76% 30.17 in 10.0 mi North 15.0 mph 21.9 mph N/A   Clear
4:15 AM 44.6 °F 39.7 °F 39.2 °F 81% 30.16 in 10.0 mi North 9.2 mph - N/A   Clear
4:35 AM 44.6 °F 38.8 °F 39.2 °F 81% 30.17 in 10.0 mi NNW 11.5 mph - N/A   Scattered Clouds
4:55 AM 44.6 °F 39.7 °F 39.2 °F 81% 30.17 in 10.0 mi NNW 9.2 mph - N/A   Scattered Clouds
5:15 AM 44.6 °F 40.2 °F 39.2 °F 81% 30.17 in 10.0 mi NNW 8.1 mph - N/A   Clear
5:35 AM 42.8 °F 38.6 °F 39.2 °F 87% 30.17 in 10.0 mi NW 6.9 mph - N/A   Clear
5:55 AM 42.8 °F 38.0 °F 37.4 °F 81% 30.18 in 10.0 mi NNW 8.1 mph - N/A   Clear
6:15 AM 42.8 °F 38.6 °F 37.4 °F 81% 30.19 in 10.0 mi NNW 6.9 mph - N/A   Clear
6:35 AM 42.8 °F 37.0 °F 39.2 °F 87% 30.19 in 10.0 mi NNW 10.4 mph - N/A   Mostly Cloudy
6:55 AM 42.8 °F 36.6 °F 37.4 °F 81% 30.19 in 10.0 mi NNW 11.5 mph - N/A   Scattered Clouds
7:15 AM 42.8 °F 37.5 °F 37.4 °F 81% 30.20 in 10.0 mi NNW 9.2 mph - N/A   Clear
7:35 AM 42.8 °F 38.0 °F 37.4 °F 81% 30.20 in 10.0 mi NNW 8.1 mph - N/A   Clear
7:55 AM 42.8 °F 37.5 °F 37.4 °F 81% 30.20 in 10.0 mi NNW 9.2 mph - N/A   Clear
8:15 AM 41.0 °F 35.8 °F 37.4 °F 87% 30.21 in 10.0 mi NW 8.1 mph - N/A   Clear
8:35 AM 42.8 °F 37.5 °F 35.6 °F 76% 30.22 in 10.0 mi NNW 9.2 mph - N/A   Clear
8:55 AM 42.8 °F 37.5 °F 35.6 °F 76% 30.22 in 10.0 mi NNW 9.2 mph - N/A   Clear
9:15 AM 46.4 °F 40.4 °F 35.6 °F 66% 30.22 in 10.0 mi NNW 13.8 mph - N/A   Clear
9:35 AM 46.4 °F 40.1 °F 35.6 °F 66% 30.24 in 10.0 mi NNW 15.0 mph 18.4 mph N/A   Clear
9:55 AM 50.0 °F - 35.6 °F 58% 30.24 in 10.0 mi NNW 15.0 mph 20.7 mph N/A   Clear
10:15 AM 51.8 °F - 33.8 °F 50% 30.24 in 10.0 mi North 15.0 mph 24.2 mph N/A   Clear
10:35 AM 51.8 °F - 33.8 °F 50% 30.25 in 10.0 mi North 17.3 mph 23.0 mph N/A   Clear
10:55 AM 53.6 °F - 33.8 °F 47% 30.25 in 10.0 mi NNW 16.1 mph 25.3 mph N/A   Clear
11:15 AM 55.4 °F - 32.0 °F 41% 30.24 in 10.0 mi NNW 19.6 mph 26.5 mph N/A   Clear
11:35 AM 55.4 °F - 32.0 °F 41% 30.24 in 10.0 mi NNW 17.3 mph 24.2 mph N/A   Clear
11:55 AM 57.2 °F - 30.2 °F 36% 30.23 in 10.0 mi North 21.9 mph 31.1 mph N/A   Clear
12:15 PM 59.0 °F - 28.4 °F 31% 30.23 in 10.0 mi NNW 28.8 mph 34.5 mph N/A   Clear
12:35 PM 59.0 °F - 28.4 °F 31% 30.23 in 10.0 mi NNW 27.6 mph 34.5 mph N/A   Clear
12:55 PM 59.0 °F - 28.4 °F 31% 30.22 in 10.0 mi North 24.2 mph 38.0 mph N/A   Clear
1:15 PM 59.0 °F - 28.4 °F 31% 30.21 in 10.0 mi North 28.8 mph 34.5 mph N/A   Clear
1:35 PM 60.8 °F - 26.6 °F 27% 30.21 in 10.0 mi North 25.3 mph 33.4 mph N/A   Clear
1:55 PM 60.8 °F - 26.6 °F 27% 30.20 in 10.0 mi North 27.6 mph 36.8 mph N/A   Clear
2:15 PM 60.8 °F - 26.6 °F 27% 30.19 in 10.0 mi North 29.9 mph 36.8 mph N/A   Clear
2:35 PM 60.8 °F - 23.0 °F 23% 30.18 in 10.0 mi North 24.2 mph 41.4 mph N/A   Clear
2:55 PM 60.8 °F - 24.8 °F 25% 30.17 in 10.0 mi North 25.3 mph 36.8 mph N/A   Clear
3:15 PM 60.8 °F - 24.8 °F 25% 30.17 in 10.0 mi NNW 26.5 mph 35.7 mph N/A   Clear
3:35 PM 60.8 °F - 24.8 °F 25% 30.17 in 10.0 mi North 24.2 mph 38.0 mph N/A   Clear
3:55 PM 62.6 °F - 24.8 °F 24% 30.17 in 10.0 mi North 25.3 mph 35.7 mph N/A   Clear
4:15 PM 60.8 °F - 23.0 °F 23% 30.16 in 10.0 mi North 23.0 mph 36.8 mph N/A   Clear
4:35 PM 60.8 °F - 24.8 °F 25% 30.16 in 10.0 mi North 28.8 mph 36.8 mph N/A   Clear
4:55 PM 60.8 °F - 23.0 °F 23% 30.17 in 10.0 mi North 26.5 mph 38.0 mph N/A   Clear
5:15 PM 60.8 °F - 23.0 °F 23% 30.17 in 10.0 mi North 18.4 mph 36.8 mph N/A   Clear
5:35 PM 60.8 °F - 23.0 °F 23% 30.17 in 10.0 mi North 18.4 mph 32.2 mph N/A   Clear
5:55 PM 60.8 °F - 23.0 °F 23% 30.17 in 10.0 mi North 23.0 mph 32.2 mph N/A   Clear
6:15 PM 59.0 °F - 23.0 °F 25% 30.18 in 10.0 mi North 26.5 mph 33.4 mph N/A   Clear
6:35 PM 59.0 °F - 24.8 °F 27% 30.19 in 10.0 mi North 18.4 mph 28.8 mph N/A   Clear
6:55 PM 57.2 °F - 24.8 °F 29% 30.19 in 10.0 mi North 20.7 mph 33.4 mph N/A   Clear
7:15 PM 55.4 °F - 24.8 °F 31% 30.19 in 10.0 mi North 16.1 mph 21.9 mph N/A   Clear
7:35 PM 55.4 °F - 24.8 °F 31% 30.20 in 10.0 mi North 12.7 mph - N/A   Clear
7:55 PM 53.6 °F - 24.8 °F 33% 30.21 in 10.0 mi North 10.4 mph - N/A   Clear
8:15 PM 53.6 °F - 26.6 °F 35% 30.21 in 10.0 mi NNW 9.2 mph - N/A   Clear
8:35 PM 51.8 °F - 26.6 °F 38% 30.21 in 10.0 mi North 6.9 mph - N/A   Clear
8:55 PM 51.8 °F - 26.6 °F 38% 30.21 in 10.0 mi North 5.8 mph - N/A   Clear
9:15 PM 50.0 °F - 26.6 °F 40% 30.21 in 10.0 mi NNW 4.6 mph - N/A   Clear
9:55 PM 46.4 °F 45.2 °F 26.6 °F 46% 30.21 in 10.0 mi WNW 3.5 mph - N/A   Clear
10:15 PM 48.2 °F - 26.6 °F 43% 30.21 in 10.0 mi Calm Calm - N/A   Clear
10:35 PM 46.4 °F - 26.6 °F 46% 30.21 in 10.0 mi Calm Calm - N/A   Clear
10:55 PM 44.6 °F - 28.4 °F 53% 30.21 in 10.0 mi Calm Calm - N/A   Clear
11:15 PM 48.2 °F - 26.6 °F 43% 30.21 in 10.0 mi Calm Calm - N/A   Clear
11:35 PM 44.6 °F - 28.4 °F 53% 30.21 in 10.0 mi Calm Calm - N/A   Clear
11:55 PM 44.6 °F - 28.4 °F 53% 30.20 in 10.0 mi Calm Calm - N/A   Clear